COSMOS 1275 DEB, 14556

Orbit data source: Space-Track

COSMOS 1275 DEB, 14556 is space debris in LEO originally from a launch on Thu, 04 Jun 1981 UTC launched from the Plesetsk Missile And Space Complex (PKMTR). Debris objects in space refer to the collection of defunct objects orbiting the Earth. Examples of debris include non-operational satellites, rocket bodies, and fragments generated from explosions, collisions, or faulty payload assembly.

Loading next visibility...
Identifier
14556, 1981-053JL
Orbit
LEO
Country
Flag of CISCIS
Related business
Manufacturer
Unknown
Mission
Spacecraft
Bus & Motor
Unknown
Mass
Unknown
Launch date (UTC)
1981-06-04 (45 years ago)
Launch vehicle
Unknown
Launch site
Plesetsk Missile And Space Complex (PKMTR)
Object type
Payload
Rocket body
Debris
Shape & HBR
Unknown shape, 0.1 m
Radar Cross Section
Small (<0.1 m²)

Expand to show TLE details & history
Last TLE update: 2 days ago

TLE from 2 days ago
0 COSMOS 1275 DEB
1 14556U 81053JL  25351.79658791  .00000963  00000-0  10091-2 0  9997
2 14556  83.0135 109.8289 0126445  98.8818  52.2030 13.70604872 87256
Epoch: 2025-12-17T19:07Z
TLE epoch observation values (Epoch: 2025-12-17T19:07:05.195Z)
Latitude
27.57555°
Longitude
-87.2542°
Altitude
944.349 km
Speed
7.41 km/s
True Right ascension
19h 04m 42s
True Declination
27° 26' 18"
Sunlit
Object was in daylight at epoch
Visualization orbit readout
Latitude
Unknown
Longitude
Unknown
Altitude
Unknown
Speed
Unknown
Apparent Right ascension
Unknown
Apparent Declination
Unknown
Sunlit
N/A
Visualization observer readout
Local Sidereal Time
14:09:12
Azimuth
Unknown
Elevation
Unknown
Doppler factor
Unknown
Orbital elements
Apogee altitude
1,087.776 km
Perigee altitude
901.328 km
Semi-major axis
7,372.689 km
Eccentricity
0.01264
Inclination
83.0135°
RAAN
109.8289°
Arg. of periapsis
98.8818°
True anomaly
53.35906°
Mean anomaly
52.203°
Eccentric anomaly
52.77991°
Mean motion
3.4285 °/min
Orbital period
105 mins
BSTAR
0.0010091
Loading maneuver chart data...
Computing Atmospheric mass density...
Loading historical data...
Loading historical data...
Loading historical data...
Loading historical data...
Loading historical data...
Loading historical data...
Loading historical data...

Documentation

Showing up to 5 results
|